Weather History for Cecil Field, FL

Change the Weather History Date:

Sunday, October 7, 2012

  Actual Average (KJAX) Record (KJAX)
Temperature  
Mean Temperature 78 °F 73 °F  
Max Temperature 89 °F 82 °F 95 °F (1951)
Min Temperature 66 °F 64 °F 47 °F (1978)
Degree Days  
Heating Degree Days 0 0  
Month to date heating degree days 0  
Since 1 July heating degree days 0  
Cooling Degree Days 12 8  
Month to date cooling degree days 64  
Year to date cooling degree days 2450  
Growing Degree Days 28 (Base 50)    
Moisture  
Dew Point 71 °F    
Average Humidity 92    
Maximum Humidity 100    
Minimum Humidity 52    
Precipitation  
Precipitation 0.00 in 0.18 in 6.14 in (1996)
Month to date precipitation 1.33  
Year to date precipitation 44.88  
Snow  
Snow 0.00 in 0.00 in 0.00 in (2002)
Month to date snowfall 0.0  
Since 1 July snowfall 0.0  
Since 1 September snowfall 0.0  
Snow Depth -    
Sea Level Pressure  
Sea Level Pressure 29.98 in    
Wind  
Wind Speed 1 mph (East)    
Max Wind Speed 12 mph    
Max Gust Speed -    
Visibility 8 miles    
Events Fog , Thunderstorm    
T = Trace of Precipitation, MM = Missing Value Source: NWS Daily Summary

Daily Weather History Graph

Daily Weather History Graph

Search for Another Location

Airport:

Trip Planner

Search our weather history database for the weather conditions in past years. The results will help you decide how hot, cold, wet, or windy it might be!

Date:

Astronomy

Oct. 07, 2012 Rise Set
Actual Time 7:24 AM EDT 7:05 PM EDT
Civil Twilight 7:00 AM EDT 7:29 PM EDT
Nautical Twilight 6:32 AM EDT 7:56 PM EDT
Astronomical Twilight 6:05 AM EDT 8:24 PM EDT
Moon No Moon Rise 1:44 PM EDT (10/7)
Length of Visible Light 12h 28m
Length of Day
11h 40m
Waning Gibbous, 56% of the Moon is Illuminated
Oct 7
Waning Gibbous
Oct 8
Last Quarter
Oct 15
New
Oct 21
First Quarter
Oct 29
Full

Hourly Weather History & Observations

Time (EDT) Temp. Heat Index Dew Point Humidity Pressure Visibility Wind Dir Wind Speed Gust Speed Precip Events Conditions
12:15 AM 71.6 °F - 71.6 °F 100% 29.97 in 8.0 mi Calm Calm - N/A   Mostly Cloudy
12:35 AM 71.6 °F - 71.6 °F 100% 29.97 in 7.0 mi Calm Calm - N/A   Clear
12:55 AM 69.8 °F - 69.8 °F 100% 29.97 in 7.0 mi Calm Calm - N/A   Clear
1:15 AM 69.8 °F - 69.8 °F 100% 29.97 in 5.0 mi Calm Calm - N/A   Clear
1:35 AM 69.8 °F - 69.8 °F 100% 29.97 in 8.0 mi Calm Calm - N/A   Clear
1:55 AM 69.8 °F - 69.8 °F 100% 29.97 in 10.0 mi Calm Calm - N/A   Clear
2:15 AM 68.0 °F - 68.0 °F 100% 29.97 in 5.0 mi Calm Calm - N/A   Clear
2:35 AM 68.0 °F - 68.0 °F 100% 29.97 in 4.0 mi Calm Calm - N/A   Clear
3:15 AM 68.0 °F - 68.0 °F 100% 29.96 in 1.2 mi Calm Calm - N/A   Mostly Cloudy
3:35 AM 68.0 °F - 68.0 °F 100% 29.96 in 5.0 mi Calm Calm - N/A   Mostly Cloudy
3:55 AM 68.0 °F - 68.0 °F 100% 29.95 in 6.0 mi Calm Calm - N/A   Partly Cloudy
4:15 AM 68.0 °F - 68.0 °F 100% 29.95 in 2.5 mi Calm Calm - N/A   Scattered Clouds
4:35 AM 68.0 °F - 68.0 °F 100% 29.95 in 0.2 mi Calm Calm - N/A Fog Fog
4:55 AM 68.0 °F - 68.0 °F 100% 29.94 in 0.2 mi Calm Calm - N/A Fog Fog
5:15 AM 68.0 °F - 68.0 °F 100% 29.95 in 0.5 mi Calm Calm - N/A Fog Fog
5:35 AM 66.2 °F - 66.2 °F 100% 29.96 in 7.0 mi Calm Calm - N/A   Clear
5:55 AM 66.2 °F - 66.2 °F 100% 29.96 in 8.0 mi Calm Calm - N/A   Clear
6:15 AM 66.2 °F - 66.2 °F 100% 29.96 in 3.0 mi Calm Calm - N/A   Clear
6:50 AM 66.2 °F - 66.2 °F 100% 29.97 in 7.0 mi Calm Calm - N/A   Clear
7:50 AM 66.2 °F - 66.2 °F 100% 29.98 in 5.0 mi Calm Calm - N/A   Clear
8:50 AM 71.6 °F - 71.6 °F 100% 29.99 in 10.0 mi Calm Calm - N/A   Clear
9:50 AM 78.8 °F - 75.2 °F 89% 30.00 in 10.0 mi Calm Calm - N/A   Clear
10:50 AM 80.6 °F 85.4 °F 73.4 °F 79% 30.00 in 10.0 mi Calm Calm - N/A   Clear
11:50 AM 84.2 °F 88.4 °F 69.8 °F 62% 29.99 in 10.0 mi Calm Calm - N/A   Clear
12:50 PM 84.2 °F 89.6 °F 71.6 °F 66% 29.99 in 10.0 mi Calm Calm - N/A   Clear
1:50 PM 84.2 °F 88.4 °F 69.8 °F 62% 29.96 in 10.0 mi Calm Calm - N/A   Mostly Cloudy
2:50 PM 89.6 °F 94.7 °F 69.8 °F 52% 29.95 in 10.0 mi North 4.6 mph - N/A   Mostly Cloudy
4:50 PM 86.0 °F 91.8 °F 71.6 °F 62% 29.93 in 10.0 mi ESE 11.5 mph - N/A   Scattered Clouds
5:50 PM 82.4 °F 88.2 °F 73.4 °F 74% 29.93 in 10.0 mi ESE 11.5 mph - N/A   Scattered Clouds
6:50 PM 80.6 °F 85.4 °F 73.4 °F 79% 29.94 in 10.0 mi ESE 6.9 mph - N/A   Scattered Clouds
7:50 PM 77.0 °F - 73.4 °F 89% 29.97 in 10.0 mi East 6.9 mph - N/A   Partly Cloudy
8:55 PM 77.0 °F - 73.4 °F 89% 29.99 in 10.0 mi Calm Calm - N/A Thunderstorm Clear
9:15 PM 77.0 °F - 73.4 °F 89% 30.00 in 10.0 mi Calm Calm - N/A Thunderstorm Clear
9:35 PM 75.2 °F - 75.2 °F 100% 30.00 in 10.0 mi Calm Calm - N/A   Clear
9:55 PM 73.4 °F - 73.4 °F 100% 30.01 in 10.0 mi Calm Calm - N/A   Clear
10:15 PM 73.4 °F - 73.4 °F 100% 30.01 in 10.0 mi Calm Calm - N/A   Clear
10:35 PM 73.4 °F - 73.4 °F 100% 30.02 in 10.0 mi Calm Calm - N/A Thunderstorm Partly Cloudy
10:55 PM 73.4 °F - 73.4 °F 100% 30.02 in 10.0 mi Calm Calm - N/A   Partly Cloudy
11:15 PM 73.4 °F - 73.4 °F 100% 30.03 in 10.0 mi Calm Calm - N/A   Clear
11:35 PM 73.4 °F - 73.4 °F 100% 30.01 in 10.0 mi Calm Calm - N/A   Clear
11:55 PM 73.4 °F - 73.4 °F 100% 30.00 in 10.0 mi Calm Calm - N/A   Clear